Terminal Aerodrome Forecast
Issued by NWS Tuscon, AZ

Home | Current Version | Previous Version | Text Only | Print | Product List | Glossary On
Versions: 1 2 3 4 5 6 7 8 9 10 11 12 13 14 15 16 17 18 19 20 21
000
FTUS45 KTWC 191100
TAFTUS
TAF
KTUS 191124Z 1912/2012 16005KT P6SM SKC
     FM192000 35006KT P6SM FEW250
     FM200200 VRB03KT P6SM SCT250
     FM200800 15005KT P6SM SCT250=

USA.gov is the U.S. government's official web portal to all federal, state and local government web resources and services.